Overview Statistics Trail Chart Weather Telemetry Raw packets
 

This is the latest recevied weather packets stored in our database for station/object KI5NXU. If no packets are shown the sender has not sent any weather packets the latest 10 day(s).

<< 72 73 74 75 76 77 78 >>
Time Temp. Humidity Pressure Rain* Wind** Luminosity Snow
1787858389 35.56° C 48% 1016.1 hPa 0 mm - 471 W/m² -
1787858084 35° C 50% 1016.2 hPa 0 mm - 719 W/m² -
1787857779 34.44° C 51% 1016.3 hPa 0 mm - 672 W/m² -
1787857476 34.44° C 52% 1016.3 hPa 0 mm - 585 W/m² -
1787857173 34.44° C 53% 1016.6 hPa 0 mm - 580 W/m² -
1787856868 33.89° C 54% 1016.6 hPa 0 mm - 695 W/m² -
1787856568 33.33° C 55% 1016.8 hPa 0 mm - 679 W/m² -
1787856263 33.33° C 55% 1016.8 hPa 0 mm - 604 W/m² -
1787855959 33.33° C 55% 1016.3 hPa 0 mm - 672 W/m² -
1787855658 33.33° C 57% 1016.6 hPa 0 mm - 589 W/m² -
1787855354 31.67° C 61% 1016.4 hPa 0 mm - 596 W/m² -
1787855049 31.67° C 61% 1016.8 hPa 0 mm - 381 W/m² -
1787854744 31.67° C 61% 1017 hPa 0 mm - 410 W/m² -
1787854443 31.67° C 61% 1017.1 hPa 0 mm - 495 W/m² -
1787854139 31.11° C 62% 1017 hPa 0 mm - 393 W/m² -
1787853833 31.11° C 64% 1017.1 hPa 0 mm - 368 W/m² -
1787853531 30.56° C 65% 1017 hPa 0 mm - 357 W/m² -
1787853227 30.56° C 66% 1017.2 hPa 0 mm - 323 W/m² -
1787852926 30° C 68% 1017.1 hPa 0 mm - 293 W/m² -
1787852621 30° C 70% 1017.1 hPa 0 mm - 316 W/m² -
1787852320 30° C 69% 1017.1 hPa 0 mm - 290 W/m² -
1787852020 30° C 71% 1017.1 hPa 0 mm - 269 W/m² -
1787851714 29.44° C 71% 1017.2 hPa 0 mm - 283 W/m² -
1787851413 28.89° C 72% 1017.7 hPa 0 mm - 474 W/m² -
1787851109 28.33° C 74% 1017.5 hPa 0 mm - 344 W/m² -

* Rain latest hour (hover to see other rain measurements)
** Current wind speed in m/s (hover to see current wind gust speed)